Location: Indian Springs
(36.5700°N, 115.6700°W)
Time: 21:01:53
(UTC-07:00)

Amateur Radio Satellites - All Passes

Search period start: 31 October 2014 20:31
Search period end: 01 November 2014 20:31
Location: Indian Springs, 36.5700°N, 115.6700°W

Satellite Date Start Highest point End Downlink Frequencies (MHz)
Time Altitude Azimuth
HO-68 31 Oct 20:39:37 20:46:44 72° 72° (ENE) 20:53:53 435.675 MHz FM
RS-15 31 Oct 20:55:13 21:06:13 77° 116° (ESE) 21:17:07 29.354 - 29.394 USB, Beacon 29.352 USB
UKube-1 31 Oct 21:01:20 21:05:10 31° 70° (ENE) 21:09:01 145.840 MHz, 145.915 MHz
SO-50 31 Oct 21:02:36 21:06:50 30° 248° (WSW) 21:11:04 436.795 FM
ZACube-1 31 Oct 21:12:15 21:15:06 17° 67° (ENE) 21:17:55 437.345 MHz
KITSAT 1 31 Oct 21:18:26 21:25:44 39° 252° (WSW) 21:33:01 435.175 FM
Oscar 11 31 Oct 21:35:25 21:39:43 72° 76° (ENE) 21:44:01 145.825 FM, Beacon 2401.500 USB
UOSAT-12 31 Oct 21:43:41 21:48:23 69° 58° (ENE) 21:52:59 437.025 FM, 437.400 FM
FUNcube-1 31 Oct 21:53:17 21:57:37 46° 74° (ENE) 22:01:53 145.950 - 145.970 MHz USB
MaSat-1 31 Oct 21:54:29 21:58:28 85° 293° (WNW) 22:02:03 437.345 MHz
HO-68 31 Oct 22:30:18 22:34:58 18° 267° (W) 22:39:41 435.675 MHz FM
UKube-1 31 Oct 22:38:10 22:41:21 20° 265° (W) 22:44:34 145.840 MHz, 145.915 MHz
ZACube-1 31 Oct 22:46:51 22:51:09 41° 261° (W) 22:55:23 437.345 MHz
AO-40 31 Oct 23:06:49 00:01:04 14° 242° (WSW) 01:17:32 Beacon 2401.320
RS-15 31 Oct 23:10:19 23:19:39 31° 319° (NW) 23:29:04 29.354 - 29.394 USB, Beacon 29.352 USB
UOSAT-12 31 Oct 23:26:33 23:27:53 11° 254° (WSW) 23:29:12 437.025 FM, 437.400 FM
FUNcube-1 31 Oct 23:31:46 23:34:10 14° 267° (W) 23:36:33 145.950 - 145.970 MHz USB
Sapphire 01 Nov 00:36:02 00:36:47 10° 102° (ESE) 00:37:31 437.095 MHz 1200 baud AX-25 AFSK
PCSat 01 Nov 00:54:22 00:58:05 19° 105° (ESE) 01:01:49 145.825 MHz
JAS-1B 01 Nov 01:09:37 01:15:44 26° 96° (E) 01:22:36 435.800 - 435.900 CW/SSB
Oscar 19 01 Nov 01:16:08 01:19:44 19° 94° (E) 01:23:20 437.125 CW, 437.150 USB
RS-15 01 Nov 01:32:21 01:37:17 14° 354° (N) 01:42:15 29.354 - 29.394 USB, Beacon 29.352 USB
AO-27 01 Nov 01:54:12 01:57:40 18° 93° (E) 02:01:07 436.795 MHz FM
Oscar 16 01 Nov 02:02:11 02:07:14 58° 101° (E) 02:12:16 437.025 USB, Beacon 2401.1428
Gurwin Techsat 1B 01 Nov 02:13:49 02:16:36 14° 92° (E) 02:19:22 435.225 FM
Sapphire 01 Nov 02:13:59 02:19:23 85° 297° (WNW) 02:24:50 437.095 MHz 1200 baud AX-25 AFSK
TMSAT-1 01 Nov 02:20:42 02:22:25 12° 90° (E) 02:24:09 436.925 FM
AO-Echo 01 Nov 02:31:56 02:37:12 60° 101° (E) 02:42:21 ?
PCSat 01 Nov 02:35:49 02:41:03 50° 301° (WNW) 02:46:20 145.825 MHz
Uribyol 2 01 Nov 02:36:22 02:41:24 50° 100° (E) 02:46:24 436.500 FM
ITAMSAT 1 01 Nov 02:44:26 02:49:35 57° 101° (E) 02:54:40 435.822 SSB
Oscar 19 01 Nov 02:54:24 02:59:14 43° 288° (WNW) 03:04:04 437.125 CW, 437.150 USB
JAS-1B 01 Nov 02:59:13 03:06:23 61° 288° (WNW) 03:14:55 435.800 - 435.900 CW/SSB
PANSAT 01 Nov 03:18:49 03:21:07 15° 165° (SSE) 03:23:25 not established
AO-27 01 Nov 03:32:23 03:37:24 48° 288° (WNW) 03:42:23 436.795 MHz FM
Oscar 16 01 Nov 03:43:07 03:46:04 16° 296° (WNW) 03:49:00 437.025 USB, Beacon 2401.1428
RS-15 01 Nov 03:47:41 03:55:55 23° 32° (NNE) 04:04:19 29.354 - 29.394 USB, Beacon 29.352 USB
Gurwin Techsat 1B 01 Nov 03:51:41 03:56:56 61° 286° (WNW) 04:02:09 435.225 FM
TMSAT-1 01 Nov 03:57:32 04:02:50 73° 285° (WNW) 04:08:05 436.925 FM
OPAL 01 Nov 04:00:30 04:03:53 18° 63° (ENE) 04:07:14 ?
Sapphire 01 Nov 04:01:16 04:03:37 13° 315° (NW) 04:05:59 437.095 MHz 1200 baud AX-25 AFSK
AO-Echo 01 Nov 04:12:12 04:15:23 16° 296° (WNW) 04:18:33 ?
Uribyol 2 01 Nov 04:16:59 04:20:27 18° 295° (WNW) 04:23:53 436.500 FM
Uosat F 01 Nov 04:24:36 04:28:47 26° 96° (E) 04:32:57 435.120 FM
ITAMSAT 1 01 Nov 04:25:23 04:28:33 17° 296° (WNW) 04:31:43 435.822 SSB
JAS-2 01 Nov 04:36:51 04:41:14 16° 87° (E) 04:45:29 435.800 - 435.900 CW/SSB, 435.910 FM
AO-7 01 Nov 04:47:32 04:55:46 60° 103° (ESE) 05:03:58 29.400 - 29.500 MHz
PANSAT 01 Nov 04:57:35 05:00:43 24° 177° (S) 05:03:50 not established
Saudisat 1A 01 Nov 05:31:20 05:35:43 86° 300° (WNW) 05:40:08 436.775 MHz
OPAL 01 Nov 05:37:24 05:42:21 50° 258° (WSW) 05:47:17 ?
STRAND 1 01 Nov 05:57:00 06:01:17 28° 68° (ENE) 06:05:36 ?
RS-15 01 Nov 05:59:25 06:10:39 72° 58° (ENE) 06:22:21 29.354 - 29.394 USB, Beacon 29.352 USB
Uosat F 01 Nov 06:03:06 06:07:32 32° 291° (WNW) 06:11:57 435.120 FM
JAS-2 01 Nov 06:19:10 06:27:06 90° 284° (WNW) 06:34:37 435.800 - 435.900 CW/SSB, 435.910 FM
PANSAT 01 Nov 06:37:30 06:40:21 20° 190° (S) 06:43:12 not established
Hamsat 01 Nov 06:40:45 06:44:58 73° 284° (WNW) 06:49:13 145.90 MHz
AO-7 01 Nov 06:41:11 06:48:00 29° 301° (WNW) 06:54:50 29.400 - 29.500 MHz
SO-67 01 Nov 06:56:37 06:58:46 16° 94° (E) 07:00:54 435.3500 MHz FM
Saudisat 1A 01 Nov 07:15:11 07:15:57 10° 318° (NW) 07:16:42 436.775 MHz
STRAND 1 01 Nov 07:35:48 07:40:20 31° 263° (W) 07:44:54 ?
MaSat-1 01 Nov 07:41:17 07:43:42 81° 247° (WSW) 07:46:01 437.345 MHz
JAS-2 01 Nov 08:06:05 08:10:59 18° 302° (WNW) 08:15:48 435.800 - 435.900 CW/SSB, 435.910 FM
HO-68 01 Nov 08:12:46 08:16:16 14° 91° (E) 08:19:44 435.675 MHz FM
RS-15 01 Nov 08:13:02 08:22:04 29° 256° (WSW) 08:31:27 29.354 - 29.394 USB, Beacon 29.352 USB
ISS 01 Nov 08:22:16 08:24:13 15° 128° (SE) 08:26:10 145.800 FM
SO-67 01 Nov 08:28:55 08:31:41 23° 288° (WNW) 08:34:27 435.3500 MHz FM
Oscar 11 01 Nov 09:26:47 09:29:23 16° 93° (E) 09:31:59 145.825 FM, Beacon 2401.500 USB
SO-50 01 Nov 09:36:25 09:38:58 15° 108° (ESE) 09:41:33 436.795 FM
PCSat 01 Nov 09:45:19 09:47:05 11° 44° (NE) 09:48:51 145.825 MHz
KITSAT 1 01 Nov 09:48:24 09:55:47 41° 109° (ESE) 10:03:11 435.175 FM
ISS 01 Nov 09:57:24 10:00:36 46° 323° (NW) 10:03:49 145.800 FM
HO-68 01 Nov 09:57:29 10:04:43 88° 286° (WNW) 10:11:54 435.675 MHz FM
UKube-1 01 Nov 10:27:18 10:31:42 83° 103° (ESE) 10:36:02 145.840 MHz, 145.915 MHz
ZACube-1 01 Nov 10:38:29 10:42:28 42° 99° (E) 10:46:24 437.345 MHz
Oscar 11 01 Nov 11:01:41 11:05:41 38° 288° (WNW) 11:09:40 145.825 FM, Beacon 2401.500 USB
Sapphire 01 Nov 11:04:34 11:09:47 45° 58° (ENE) 11:14:57 437.095 MHz 1200 baud AX-25 AFSK
SO-50 01 Nov 11:14:41 11:19:02 49° 304° (NW) 11:23:31 436.795 FM
FUNcube-1 01 Nov 11:21:02 11:25:07 56° 285° (WNW) 11:29:10 145.950 - 145.970 MHz USB
PCSat 01 Nov 11:25:59 11:31:25 76° 62° (ENE) 11:36:49 145.825 MHz
ISS 01 Nov 11:37:31 11:37:58 10° 341° (NNW) 11:38:26 145.800 FM
KITSAT 1 01 Nov 11:43:32 11:51:06 43° 307° (NW) 11:58:42 435.175 FM
HO-68 01 Nov 11:47:29 11:51:23 16° 304° (NW) 11:55:18 435.675 MHz FM
UOSAT-12 01 Nov 11:52:37 11:56:49 36° 113° (ESE) 12:01:07 437.025 FM, 437.400 FM
JAS-1B 01 Nov 11:57:58 11:59:31 11° 58° (ENE) 12:01:04 435.800 - 435.900 CW/SSB
ZACube-1 01 Nov 12:16:22 12:18:28 14° 294° (WNW) 12:20:34 437.345 MHz
Oscar 19 01 Nov 12:30:46 12:34:42 23° 67° (ENE) 12:38:38 437.125 CW, 437.150 USB
Sapphire 01 Nov 12:48:47 12:52:50 22° 254° (WSW) 12:56:53 437.095 MHz 1200 baud AX-25 AFSK
AO-27 01 Nov 13:09:58 13:13:56 22° 66° (ENE) 13:17:54 436.795 MHz FM
PCSat 01 Nov 13:12:06 13:14:06 12° 258° (WSW) 13:16:06 145.825 MHz
Oscar 16 01 Nov 13:16:38 13:21:44 66° 74° (ENE) 13:26:50 437.025 USB, Beacon 2401.1428
Gurwin Techsat 1B 01 Nov 13:32:24 13:36:03 19° 65° (ENE) 13:39:42 435.225 FM
UOSAT-12 01 Nov 13:33:15 13:37:02 24° 310° (NW) 13:40:53 437.025 FM, 437.400 FM
TMSAT-1 01 Nov 13:38:36 13:41:43 16° 64° (ENE) 13:44:50 436.925 FM
AO-Echo 01 Nov 13:42:15 13:47:07 58° 73° (ENE) 13:52:11 ?
JAS-1B 01 Nov 13:43:34 13:49:22 82° 256° (WSW) 13:55:06 435.800 - 435.900 CW/SSB
KITSAT 1 01 Nov 13:47:11 13:49:01 11° 332° (NNW) 13:50:52 435.175 FM
Uribyol 2 01 Nov 13:51:41 13:56:48 59° 73° (ENE) 14:01:57 436.500 FM
AO-7 01 Nov 13:57:24 14:00:33 13° 49° (NE) 14:03:43 29.400 - 29.500 MHz
ITAMSAT 1 01 Nov 13:59:55 14:05:04 67° 74° (ENE) 14:10:17 435.822 SSB
Saudisat 1A 01 Nov 14:00:26 14:04:32 36° 54° (NE) 14:08:37 436.775 MHz
Oscar 19 01 Nov 14:09:01 14:13:47 38° 262° (W) 14:18:33 437.125 CW, 437.150 USB
AO-27 01 Nov 14:48:16 14:53:08 40° 261° (W) 14:58:04 436.795 MHz FM
ISS 01 Nov 14:52:34 14:54:05 13° 22° (NNE) 14:55:36 145.800 FM
Oscar 16 01 Nov 14:59:23 15:01:29 12° 269° (W) 15:03:36 437.025 USB, Beacon 2401.1428
Gurwin Techsat 1B 01 Nov 15:10:28 15:15:35 49° 260° (W) 15:20:45 435.225 FM
TMSAT-1 01 Nov 15:15:52 15:21:05 60° 259° (W) 15:26:21 436.925 FM
AO-Echo 01 Nov 15:23:42 15:26:16 14° 269° (W) 15:28:53 ?
Uribyol 2 01 Nov 15:33:51 15:36:37 14° 268° (W) 15:39:25 436.500 FM
Uosat F 01 Nov 15:35:34 15:39:50 28° 68° (ENE) 15:44:06 435.120 FM
Saudisat 1A 01 Nov 15:40:37 15:43:50 20° 250° (WSW) 15:47:03 436.775 MHz
ITAMSAT 1 01 Nov 15:42:48 15:44:59 13° 269° (W) 15:47:11 435.822 SSB
AO-7 01 Nov 15:43:36 15:51:44 65° 68° (ENE) 15:59:54 29.400 - 29.500 MHz
ISS 01 Nov 16:27:57 16:31:17 70° 40° (NE) 16:34:36 145.800 FM
JAS-2 01 Nov 16:28:51 16:34:19 31° 64° (ENE) 16:40:22 435.800 - 435.900 CW/SSB, 435.910 FM
Uosat F 01 Nov 17:14:10 17:18:30 29° 263° (W) 17:22:52 435.120 FM
Hamsat 01 Nov 17:31:25 17:35:30 56° 75° (ENE) 17:39:36 145.90 MHz
AO-7 01 Nov 17:38:34 17:44:58 25° 265° (W) 17:51:25 29.400 - 29.500 MHz
KITSAT 1 01 Nov 17:45:06 17:49:38 16° 36° (NE) 17:54:09 435.175 FM
OPAL 01 Nov 17:49:37 17:54:26 51° 102° (ESE) 17:59:14 ?
SO-50 01 Nov 18:10:32 18:11:44 11° 41° (NE) 18:12:56 436.795 FM
STRAND 1 01 Nov 18:12:49 18:13:39 10° 90° (E) 18:14:29 ?
JAS-2 01 Nov 18:13:15 18:19:05 42° 264° (W) 18:25:40 435.800 - 435.900 CW/SSB, 435.910 FM
SO-67 01 Nov 18:58:06 19:01:30 69° 77° (ENE) 19:04:56 435.3500 MHz FM
OPAL 01 Nov 19:29:46 19:32:53 17° 297° (WNW) 19:36:00 ?
KITSAT 1 01 Nov 19:38:44 19:46:46 64° 59° (ENE) 19:54:44 435.175 FM
STRAND 1 01 Nov 19:48:11 19:53:20 76° 285° (WNW) 19:58:26 ?
SO-50 01 Nov 19:48:14 19:53:06 74° 59° (ENE) 19:57:59 436.795 FM
UOSAT-12 01 Nov 20:25:00 20:28:21 19° 47° (NE) 20:31:39 437.025 FM, 437.400 FM
